Tracking 31027 objects as of 19-Jul-2025
HD Live streaming from Space Station
objects crossing your sky now

DELTA 1 DEB

Track DELTA 1 DEB now!
10-day predictions


NORAD ID: 12266
Int'l Code: 1978-026DK
Perigee: 805.5 km
Apogee: 1,014.6 km
Inclination: 98.7 °
Period: 103.1 minutes
Semi major axis: 7281 km
RCS: 0.0032 m2 (small)
Launch date: March 5, 1978
Source: United States (US)
Launch site: AIR FORCE WESTERN TEST RANGE (AFWTR)

Note: This is SATELLITE DEBRIS
Your satellite tracking list
DMSP 5D-2 F13 DEB
Track 1 satellite(s)




NASA's NSSDC Master Catalog

Two Line Element Set (TLE):
1 12266U 78026DK  25199.91504318  .00001209  00000-0  81674-3 0  9998
2 12266  98.7356 358.5653 0143533 246.7640 111.8355 13.97370452237333
Source of the keplerian elements: AFSPC